When you browse on this site, cookies collect data to enhance your experience and personalize the content and advertising you see.
Visit our Privacy Policy to learn more. By continuing to use the site, you agree to this use of cookies and data.
  • In Spain
  • List of Countries
  • For 7 days
  • Water Temperature
  • Satellite Maps
  • Weather Map
  • Weather Widgets
  • user-avatar
    Login

    Hourly Weather Klagenfurt

    Today, 21 April, Sunday

    Time Temperature Precipitation Wind Pressure Humidity
    00:00 +6°C° 0 mm 0 mps 695 mmHg 75%
    01:00 +6°C° 0 mm 0 mps 695 mmHg 75%
    02:00 +5°C° 0 mm 0 mps 695 mmHg 76%
    03:00 +5°C° 0 mm 0 mps 694 mmHg 77%
    04:00 +5°C° 0 mm 0 mps 694 mmHg 77%
    05:00 +6°C° 0 mm 0 mps 694 mmHg 73%
    06:00 +7°C° 0 mm 0 mps 694 mmHg 69%
    07:00 +9°C° 0 mm 0 mps 694 mmHg 65%
    08:00 +11°C° 0 mm 0 mps 694 mmHg 57%
    09:00 +15°C° 0 mm 1 mps 694 mmHg 48%
    10:00 +18°C° 0 mm 1 mps 695 mmHg 40%
    11:00 +19°C° 0 mm 1 mps 694 mmHg 38%
    12:00 +20°C° 0 mm 1 mps 694 mmHg 36%
    13:00 +21°C° 0 mm 1 mps 694 mmHg 34%
    14:00 +20°C° 0 mm 1 mps 693 mmHg 35%
    15:00 +19°C° 0 mm 2 mps 693 mmHg 37%
    16:00 +18°C° 0 mm 2 mps 692 mmHg 39%
    17:00 +16°C° 0 mm 2 mps 692 mmHg 48%
    18:00 +14°C° 0 mm 1 mps 691 mmHg 58%
    19:00 +11°C° 0 mm 1 mps 691 mmHg 68%
    20:00 +10°C° 0 mm 1 mps 691 mmHg 72%
    21:00 +9°C° 0 mm 1 mps 691 mmHg 76%
    22:00 +8°C° 0 mm 1 mps 691 mmHg 80%
    23:00 +8°C° 0 mm 1 mps 691 mmHg 80%

    Tomorrow, 22 April, Monday

    Time Temperature Precipitation Wind Pressure Humidity
    00:00 +7°C° 0 mm 1 mps 690 mmHg 79%
    01:00 +6°C° 0 mm 1 mps 690 mmHg 79%
    02:00 +6°C° 0 mm 1 mps 690 mmHg 78%
    03:00 +6°C° 0 mm 1 mps 689 mmHg 77%
    04:00 +5°C° 0 mm 1 mps 689 mmHg 76%
    05:00 +6°C° 0 mm 1 mps 688 mmHg 71%
    06:00 +8°C° 0 mm 1 mps 688 mmHg 65%
    07:00 +9°C° 0 mm 1 mps 688 mmHg 60%
    08:00 +11°C° 0 mm 1 mps 688 mmHg 54%
    09:00 +14°C° 0 mm 1 mps 688 mmHg 49%
    10:00 +16°C° 0 mm 2 mps 688 mmHg 43%
    11:00 +17°C° 0 mm 2 mps 688 mmHg 43%
    12:00 +17°C° 0 mm 2 mps 687 mmHg 42%
    13:00 +18°C° 0 mm 3 mps 687 mmHg 42%
    14:00 +17°C° 0 mm 3 mps 686 mmHg 45%
    15:00 +17°C° 0 mm 3 mps 686 mmHg 49%
    16:00 +16°C° 0 mm 3 mps 685 mmHg 52%
    17:00 +14°C° 0 mm 2 mps 685 mmHg 61%
    18:00 +12°C° 0 mm 2 mps 684 mmHg 70%
    19:00 +9°C° 0 mm 2 mps 684 mmHg 80%
    20:00 +10°C° 0 mm 1 mps 684 mmHg 81%
    21:00 +10°C° 0 mm 1 mps 684 mmHg 83%
    22:00 +9°C° 0 mm 1 mps 684 mmHg 84%
    23:00 +9°C° 0.2 mm 1 mps 683 mmHg 85%

    Day after tomorrow, 23 April, Tuesday

    Time Temperature Precipitation Wind Pressure Humidity
    00:00 +9°C° 0.2 mm 1 mps 683 mmHg 86%
    01:00 +8°C° 0.2 mm 0 mps 683 mmHg 87%
    02:00 +8°C° 0.9 mm 0 mps 682 mmHg 89%
    03:00 +8°C° 0.9 mm 0 mps 682 mmHg 91%
    04:00 +7°C° 0.9 mm 0 mps 681 mmHg 93%
    05:00 +7°C° 1.7 mm 0 mps 681 mmHg 93%
    06:00 +7°C° 1.7 mm 0 mps 681 mmHg 94%
    07:00 +8°C° 1.7 mm 1 mps 681 mmHg 94%
    08:00 +9°C° 0.9 mm 1 mps 681 mmHg 94%
    09:00 +9°C° 0.9 mm 1 mps 681 mmHg 93%
    10:00 +9°C° 0.9 mm 1 mps 682 mmHg 93%
    11:00 +10°C° 1.1 mm 1 mps 682 mmHg 92%
    12:00 +10°C° 1.1 mm 1 mps 682 mmHg 91%
    13:00 +11°C° 1.1 mm 1 mps 682 mmHg 90%
    14:00 +11°C° 1.2 mm 1 mps 682 mmHg 91%
    15:00 +11°C° 1.2 mm 1 mps 682 mmHg 91%
    16:00 +11°C° 1.2 mm 1 mps 681 mmHg 91%
    17:00 +11°C° 0.7 mm 1 mps 682 mmHg 92%
    18:00 +10°C° 0.7 mm 2 mps 682 mmHg 93%
    19:00 +10°C° 0.7 mm 2 mps 682 mmHg 94%
    20:00 +10°C° 0.7 mm 2 mps 682 mmHg 95%
    21:00 +11°C° 0.7 mm 1 mps 683 mmHg 96%
    22:00 +10°C° 0.7 mm 1 mps 683 mmHg 97%
    23:00 +10°C° 0.6 mm 1 mps 683 mmHg 97%

    24 April, Wednesday

    Time Temperature Precipitation Wind Pressure Humidity
    00:00 +10°C° 0.6 mm 1 mps 684 mmHg 97%
    01:00 +10°C° 0.6 mm 1 mps 684 mmHg 97%
    02:00 +10°C° 0.2 mm 1 mps 684 mmHg 97%
    03:00 +10°C° 0.2 mm 1 mps 684 mmHg 98%
    04:00 +10°C° 0.2 mm 1 mps 684 mmHg 98%
    05:00 +9°C° 0.1 mm 2 mps 685 mmHg 96%
    06:00 +10°C° 0.1 mm 2 mps 685 mmHg 95%
    07:00 +10°C° 0.1 mm 2 mps 686 mmHg 94%
    08:00 +12°C° 0.1 mm 2 mps 686 mmHg 92%
    09:00 +12°C° 0.1 mm 2 mps 687 mmHg 89%
    10:00 +13°C° 0.1 mm 2 mps 687 mmHg 87%
    11:00 +13°C° 0.1 mm 3 mps 688 mmHg 82%
    12:00 +14°C° 0.1 mm 3 mps 688 mmHg 78%
    13:00 +14°C° 0.1 mm 3 mps 688 mmHg 73%
    14:00 +16°C° 0.1 mm 3 mps 689 mmHg 72%
    15:00 +16°C° 0.1 mm 3 mps 689 mmHg 71%
    16:00 +16°C° 0.1 mm 3 mps 689 mmHg 71%
    17:00 +14°C° 0.1 mm 3 mps 689 mmHg 77%
    18:00 +13°C° 0.1 mm 2 mps 689 mmHg 84%
    19:00 +12°C° 0.1 mm 2 mps 689 mmHg 90%
    20:00 +12°C° 0 mm 2 mps 689 mmHg 92%
    21:00 +10°C° 0 mm 2 mps 689 mmHg 95%
    22:00 +10°C° 0 mm 1 mps 689 mmHg 97%
    23:00 +10°C° 0 mm 1 mps 689 mmHg 97%

    25 April, Thursday

    Time Temperature Precipitation Wind Pressure Humidity
    00:00 +10°C° 0 mm 1 mps 690 mmHg 97%
    01:00 +10°C° 0 mm 1 mps 690 mmHg 97%
    02:00 +10°C° 0 mm 1 mps 690 mmHg 97%
    03:00 +10°C° 0 mm 1 mps 690 mmHg 97%
    04:00 +10°C° 0 mm 1 mps 690 mmHg 97%
    05:00 +10°C° 0 mm 1 mps 690 mmHg 94%
    06:00 +11°C° 0 mm 1 mps 691 mmHg 91%
    07:00 +12°C° 0 mm 1 mps 691 mmHg 89%
    08:00 +13°C° 0.1 mm 2 mps 691 mmHg 86%
    09:00 +13°C° 0.1 mm 2 mps 691 mmHg 84%
    10:00 +14°C° 0.1 mm 2 mps 691 mmHg 82%
    11:00 +15°C° 0.1 mm 2 mps 691 mmHg 78%
    12:00 +16°C° 0.1 mm 2 mps 691 mmHg 74%
    13:00 +17°C° 0.1 mm 3 mps 691 mmHg 71%
    14:00 +17°C° 0.1 mm 3 mps 691 mmHg 70%
    15:00 +17°C° 0.1 mm 3 mps 690 mmHg 69%
    16:00 +17°C° 0.1 mm 3 mps 690 mmHg 69%
    17:00 +16°C° 0 mm 2 mps 690 mmHg 76%
    18:00 +14°C° 0 mm 2 mps 690 mmHg 84%
    19:00 +13°C° 0 mm 2 mps 689 mmHg 91%
    20:00 +12°C° 0 mm 2 mps 689 mmHg 93%
    21:00 +11°C° 0 mm 1 mps 689 mmHg 94%
    22:00 +11°C° 0 mm 1 mps 689 mmHg 96%
    23:00 +10°C° 0 mm 1 mps 689 mmHg 96%

    26 April, Friday

    Time Temperature Precipitation Wind Pressure Humidity
    00:00 +10°C° 0 mm 1 mps 689 mmHg 96%
    01:00 +10°C° 0 mm 1 mps 689 mmHg 96%
    02:00 +10°C° 0 mm 1 mps 688 mmHg 96%
    03:00 +10°C° 0 mm 1 mps 688 mmHg 96%
    04:00 +10°C° 0 mm 1 mps 688 mmHg 96%
    05:00 +11°C° 0 mm 1 mps 688 mmHg 93%
    06:00 +12°C° 0 mm 1 mps 689 mmHg 90%
    07:00 +12°C° 0 mm 1 mps 689 mmHg 87%
    08:00 +14°C° 0.1 mm 1 mps 689 mmHg 83%
    09:00 +15°C° 0.1 mm 2 mps 690 mmHg 78%
    10:00 +16°C° 0.1 mm 2 mps 690 mmHg 73%
    11:00 +17°C° 0.5 mm 2 mps 690 mmHg 71%
    12:00 +17°C° 0.5 mm 2 mps 691 mmHg 68%
    13:00 +18°C° 0.5 mm 2 mps 691 mmHg 66%
    14:00 +18°C° 0.2 mm 2 mps 691 mmHg 62%
    15:00 +18°C° 0.2 mm 2 mps 692 mmHg 58%
    16:00 +18°C° 0.2 mm 2 mps 692 mmHg 55%
    17:00 +16°C° 0.4 mm 2 mps 692 mmHg 63%
    18:00 +13°C° 0.4 mm 2 mps 692 mmHg 71%
    19:00 +10°C° 0.4 mm 2 mps 692 mmHg 79%
    20:00 +9°C° 0.1 mm 2 mps 693 mmHg 78%
    21:00 +8°C° 0.1 mm 2 mps 693 mmHg 78%
    22:00 +8°C° 0.1 mm 1 mps 694 mmHg 78%
    23:00 +7°C° 0 mm 1 mps 694 mmHg 78%
    Show more